Bay City, TX

8:00 AM CDT on March 27, 2017 (GMT -0500)
Bay City

Weather History for KBYY - May, 2014

Change the Weather History Date:

Saturday, May 17, 2014

  Actual Average (KLBX) Record (KLBX)
Temperature  
Mean Temperature 73 °F -  
Max Temperature 82 °F 83 °F 93 °F (2003)
Min Temperature 64 °F 66 °F 53 °F (2006)
Cooling Degree Days 8    
Growing Degree Days 23 (Base 50)    
Moisture  
Dew Point 64 °F    
Average Humidity 72    
Maximum Humidity 94    
Minimum Humidity 48    
Precipitation  
Precipitation 0.00 in - - ()
Sea Level Pressure  
Sea Level Pressure 30.05 in    
Wind  
Wind Speed 12 mph (South)    
Max Wind Speed 21 mph    
Max Gust Speed 28 mph    
Visibility 10 miles    
Events      
Averages and records for this station are not official NWS values.
T = Trace of Precipitation, MM = Missing Value Source: NWS Daily Summary

Daily Weather History Graph

Daily Weather History Graph

Search for Another Location

Airport or City:

Trip Planner

Search our weather history database for the weather conditions in past years. The results will help you decide how hot, cold, wet, or windy it might be!

Date:

Astronomy

May. 17, 2014 Rise Set
Actual Time 6:30 AM CDT 8:09 PM CDT
Civil Twilight 6:04 AM CDT 8:35 PM CDT
Nautical Twilight 5:33 AM CDT 9:06 PM CDT
Astronomical Twilight 5:01 AM CDT 9:39 PM CDT
Moon 11:12 PM CDT (5/17) 9:14 AM CDT (5/17)
Length of Visible Light 14h 30m
Length of Day
13h 38m
Waning Gibbous, 89% of the Moon is Illuminated
May 17
Waning Gibbous
May 21
Last Quarter
May 28
New
Jun 5
First Quarter
Jun 12
Full

Hourly Weather History & Observations

Time (CDT) Temp. Heat Index Dew Point Humidity Pressure Visibility Wind Dir Wind Speed Gust Speed Precip Events Conditions
12:15 AM 64.9 °F - 60.8 °F 86% 30.09 in 10.0 mi South 8.1 mph - N/A   Clear
12:35 AM 65.7 °F - 61.2 °F 85% 30.09 in 10.0 mi South 8.1 mph - N/A   Clear
12:55 AM 65.7 °F - 61.0 °F 85% 30.08 in 10.0 mi South 9.2 mph - N/A   Clear
1:15 AM 65.8 °F - 61.0 °F 84% 30.08 in 10.0 mi South 9.2 mph - N/A   Clear
1:35 AM 65.8 °F - 61.0 °F 84% 30.08 in 10.0 mi South 9.2 mph - N/A   Clear
1:55 AM 66.0 °F - 61.0 °F 84% 30.07 in 10.0 mi South 10.4 mph - N/A   Clear
2:15 AM 66.2 °F - 61.2 °F 84% 30.07 in 10.0 mi South 9.2 mph - N/A   Clear
2:35 AM 66.0 °F - 61.3 °F 85% 30.06 in 10.0 mi South 9.2 mph - N/A   Clear
2:55 AM 65.8 °F - 61.3 °F 85% 30.06 in 10.0 mi South 9.2 mph - N/A   Clear
3:15 AM 66.4 °F - 61.7 °F 85% 30.05 in 10.0 mi South 11.5 mph - N/A   Clear
3:35 AM 66.6 °F - 61.7 °F 84% 30.04 in 10.0 mi South 11.5 mph - N/A   Clear
3:55 AM 66.7 °F - 61.9 °F 84% 30.04 in 10.0 mi South 11.5 mph - N/A   Clear
4:15 AM 66.7 °F - 61.9 °F 84% 30.04 in 10.0 mi South 11.5 mph - N/A   Clear
4:35 AM 67.1 °F - 62.2 °F 84% 30.04 in 10.0 mi South 10.4 mph - N/A   Clear
4:55 AM 67.3 °F - 62.6 °F 85% 30.03 in 10.0 mi South 12.7 mph 19.6 mph N/A   Clear
5:15 AM 67.5 °F - 62.6 °F 84% 30.03 in 10.0 mi South 10.4 mph - N/A   Clear
5:35 AM 67.3 °F - 62.8 °F 85% 30.03 in 10.0 mi South 11.5 mph - N/A   Clear
5:55 AM 67.1 °F - 62.6 °F 85% 30.03 in 10.0 mi South 9.2 mph - N/A   Clear
6:15 AM 66.7 °F - 62.8 °F 87% 30.03 in 10.0 mi South 9.2 mph - N/A   Clear
6:35 AM 66.9 °F - 63.0 °F 87% 30.03 in 10.0 mi SSW 10.4 mph - N/A   Clear
6:55 AM 67.1 °F - 63.3 °F 88% 30.03 in 10.0 mi SSW 10.4 mph - N/A   Clear
7:15 AM 67.8 °F - 63.5 °F 86% 30.03 in 10.0 mi SSW 12.7 mph - N/A   Clear
7:35 AM 69.1 °F - 63.9 °F 83% 30.03 in 10.0 mi SSW 10.4 mph - N/A   Clear
7:55 AM 70.5 °F - 64.6 °F 81% 30.04 in 10.0 mi SSW 11.5 mph - N/A   Clear
8:15 AM 72.0 °F - 64.8 °F 78% 30.05 in 10.0 mi SSW 17.3 mph 24.2 mph N/A   Clear
8:35 AM 73.2 °F - 64.4 °F 74% 30.06 in 10.0 mi SSW 18.4 mph 25.3 mph N/A   Clear
8:55 AM 74.5 °F - 64.4 °F 71% 30.06 in 10.0 mi SSW 18.4 mph 26.5 mph N/A   Scattered Clouds
9:15 AM 75.0 °F - 64.4 °F 69% 30.07 in 10.0 mi South 20.7 mph 24.2 mph N/A   Scattered Clouds
9:35 AM 75.9 °F - 64.0 °F 67% 30.08 in 10.0 mi SSW 17.3 mph 23.0 mph N/A   Scattered Clouds
9:55 AM 76.8 °F - 63.9 °F 64% 30.08 in 10.0 mi SSW 18.4 mph 25.3 mph N/A   Scattered Clouds
10:15 AM 77.5 °F - 63.7 °F 62% 30.08 in 10.0 mi South 16.1 mph - N/A   Clear
10:35 AM 78.4 °F - 63.9 °F 61% 30.08 in 10.0 mi SSW 16.1 mph 21.9 mph N/A   Clear
10:55 AM 78.8 °F - 63.5 °F 59% 30.08 in 10.0 mi SW 15.0 mph 23.0 mph N/A   Clear
11:15 AM 79.3 °F - 63.0 °F 57% 30.09 in 10.0 mi SSW 17.3 mph 23.0 mph N/A   Clear
11:35 AM 80.1 °F 81.5 °F 63.0 °F 56% 30.08 in 10.0 mi SSW 16.1 mph 23.0 mph N/A   Clear
11:55 AM 80.2 °F 81.6 °F 63.1 °F 56% 30.08 in 10.0 mi SSW 15.0 mph 23.0 mph N/A   Clear
12:15 PM 80.8 °F 82.0 °F 63.0 °F 54% 30.08 in 10.0 mi SSW 17.3 mph - N/A   Clear
12:35 PM 81.3 °F 82.6 °F 63.3 °F 54% 30.08 in 10.0 mi SSW 13.8 mph 21.9 mph N/A   Clear
12:55 PM 81.3 °F 82.5 °F 62.8 °F 53% 30.08 in 10.0 mi SSW 16.1 mph 21.9 mph N/A   Clear
1:15 PM 82.0 °F 82.8 °F 61.9 °F 50% 30.07 in 10.0 mi South 19.6 mph 24.2 mph N/A   Clear
1:35 PM 82.6 °F 83.1 °F 61.2 °F 48% 30.07 in 10.0 mi South 17.3 mph 23.0 mph N/A   Clear
1:55 PM 82.4 °F 83.5 °F 63.3 °F 52% 30.06 in 10.0 mi South 13.8 mph - N/A   Clear
2:15 PM 82.4 °F 83.7 °F 63.5 °F 53% 30.06 in 10.0 mi South 18.4 mph 24.2 mph N/A   Clear
2:35 PM 82.2 °F 83.2 °F 62.2 °F 51% 30.05 in 10.0 mi South 17.3 mph - N/A   Clear
2:55 PM 82.2 °F 83.2 °F 62.2 °F 51% 30.05 in 10.0 mi South 16.1 mph 27.6 mph N/A   Clear
3:15 PM 82.0 °F 83.0 °F 62.4 °F 51% 30.04 in 10.0 mi South 18.4 mph 21.9 mph N/A   Clear
3:35 PM 81.7 °F 82.9 °F 63.1 °F 53% 30.04 in 10.0 mi South 18.4 mph 24.2 mph N/A   Clear
3:55 PM 81.5 °F 82.9 °F 63.7 °F 55% 30.03 in 10.0 mi South 18.4 mph 25.3 mph N/A   Clear
4:15 PM 81.0 °F 82.5 °F 64.0 °F 56% 30.02 in 10.0 mi South 18.4 mph 24.2 mph N/A   Clear
4:35 PM 80.4 °F 82.1 °F 64.4 °F 58% 30.02 in 10.0 mi South 18.4 mph 21.9 mph N/A   Clear
4:55 PM 80.1 °F 81.7 °F 64.2 °F 58% 30.02 in 10.0 mi South 16.1 mph 26.5 mph N/A   Clear
5:15 PM 79.7 °F - 64.6 °F 60% 30.02 in 10.0 mi SSE 18.4 mph 24.2 mph N/A   Clear
5:35 PM 79.0 °F - 65.1 °F 62% 30.02 in 10.0 mi South 15.0 mph 21.9 mph N/A   Scattered Clouds
5:55 PM 78.4 °F - 64.8 °F 63% 30.02 in 10.0 mi SSE 20.7 mph 24.2 mph N/A   Scattered Clouds
6:15 PM 78.1 °F - 64.9 °F 64% 30.02 in 10.0 mi SSE 18.4 mph 23.0 mph N/A   Mostly Cloudy
6:35 PM 77.0 °F - 64.8 °F 66% 30.02 in 10.0 mi South 16.1 mph 23.0 mph N/A   Scattered Clouds
6:55 PM 76.1 °F - 64.9 °F 68% 30.03 in 10.0 mi South 15.0 mph 18.4 mph N/A   Scattered Clouds
7:15 PM 75.6 °F - 65.1 °F 70% 30.03 in 10.0 mi South 13.8 mph - N/A   Scattered Clouds
7:35 PM 75.6 °F - 65.5 °F 71% 30.03 in 10.0 mi South 13.8 mph - N/A   Mostly Cloudy
7:55 PM 74.8 °F - 65.8 °F 73% 30.03 in 10.0 mi SSE 11.5 mph - N/A   Mostly Cloudy
8:15 PM 74.3 °F - 66.0 °F 75% 30.03 in 10.0 mi SSE 15.0 mph - N/A   Mostly Cloudy
8:35 PM 73.6 °F - 66.2 °F 78% 30.04 in 10.0 mi SSE 8.1 mph - N/A   Scattered Clouds
8:55 PM 73.4 °F - 66.6 °F 79% 30.04 in 10.0 mi SSE 6.9 mph - N/A   Mostly Cloudy
9:15 PM 72.9 °F - 66.7 °F 81% 30.04 in 10.0 mi SSE 6.9 mph - N/A   Mostly Cloudy
9:35 PM 72.7 °F - 66.9 °F 82% 30.04 in 10.0 mi SE 6.9 mph - N/A   Scattered Clouds
9:55 PM 72.5 °F - 67.3 °F 84% 30.04 in 10.0 mi SSE 9.2 mph - N/A   Scattered Clouds
10:15 PM 72.0 °F - 67.1 °F 85% 30.05 in 10.0 mi SE 8.1 mph - N/A   Scattered Clouds
10:35 PM 71.4 °F - 67.1 °F 86% 30.05 in 10.0 mi SE 10.4 mph - N/A   Scattered Clouds
10:55 PM 69.8 °F - 68.0 °F 94% 30.05 in 10.0 mi SE 10.4 mph 17.3 mph N/A   Clear
11:15 PM 71.6 °F - 67.6 °F 87% 30.05 in 10.0 mi SE 10.4 mph - N/A   Scattered Clouds
11:35 PM 71.6 °F - 67.6 °F 87% 30.05 in 10.0 mi SSE 9.2 mph - N/A   Scattered Clouds
11:55 PM 71.8 °F - 67.5 °F 86% 30.05 in 10.0 mi SSE 9.2 mph - N/A   Mostly Cloudy